RH
91 91 84 75 77 69 51 63 76 87 100 99 100 99 98 78 68 56 57 54 61 63 66 64 62 60 93 85 79 90 85 95 97 66 37 31 32 40 46 72 88 98 89 80
90 92 90 71 76 67 51 97 96 80 95 97 98 94 85 81 84 66 72 74 76 59 69 72 67 72 84 80 90 89 86 96 91 60 54 64 62 66 68 67 74 94 97 82
89 92 92 76 80 73 55 92 96 91 94 93 84 87 83 85 80 79 68 77 85 80 80 71 75 74 77 82 86 84 82 90 95 95 80 100 97 83 77 94 97 86 81 69
90 93 91 84 81 81 56 94 89 85 99 94 83 80 81 79 66 71 72 78 88 86 92 86 83 71 71 83 81 84 90 98 95 98 97 98 93 88 83 86 81 98 96 83
87 88 92 90 86 80 66 91 93 95 89 86 87 76 86 74 71 68 66 85 71 77 91 80 77 77 91 100 91 88 87 97 100 97 92 98 96 82 74 78 79 100 97 88
84 86 89 90 87 76 76 93 93 83 86 96 86 85 80 79 70 62 62 62 78 84 78 74 80 78 81 74 79 88 100 98 98 84 93 98 98 79 70 73 81 92 93 77
85 84 89 90 84 80 64 78 81 93 87 98 91 75 76 77 70 75 70 62 70 63 49 55 66 68 86 81 78 73 95 97 99 93 96 95 55 60 62 69 65 82 72 66
87 85 90 87 77 90 76 72 75 92 100 75 68 79 76 62 60 63 63 57 51 53 74 93 92 95 92 81 77 77 82 89 96 94 95 78 56 42 79 85 69 64 74 66
84 82 84 87 82 89 86 74 71 88 96 91 58 63 66 83 87 84 70 61 59 70 94 95 90 88 85 88 89 74 85 88 96 97 96 90 59 54 55 51 72 47 53 58
77 79 78 77 86 90 89 78 80 87 100 86 70 87 83 76 82 95 84 70 73 75 97 95 97 69 70 88 88 96 97 97 96 96 95 82 58 49 48 69 63 45 51 50
76 78 77 77 79 84 84 83 79 86 95 78 73 65 76 80 84 89 73 79 77 94 99 95 92 94 74 79 81 90 83 92 95 91 96 90 52 53 67 64 50 51 52 55
80 82 81 77 79 86 86 87 85 77 96 81 66 64 62 67 67 78 84 79 90 95 96 96 93 97 99 89 91 87 92 83 88 78 76 62 54 58 50 58 59 59 54 61
87 90 93 92 91 92 93 92 80 89 94 88 90 88 68 55 58 62 87 73 68 81 81 96 95 94 97 90 82 72 71 72 84 77 65 70 65 62 61 59 66 66 69 72
91 94 92 94 94 95 96 98 98 97 99 97 71 54 72 54 67 72 74 71 60 70 83 88 91 94 88 97 74 64 74 77 76 80 66 65 62 68 68 67 72 77 91 90
95 95 95 93 90 88 85 82 88 94 92 94 94 74 71 64 63 72 77 76 79 89 91 96 89 79 84 97 94 82 82 81 81 81 59 54 48 52 67 75 75 76 90 97
88 90 88 92 93 98 100 99 98 99 100 98 94 74 72 61 79 83 90 95 88 96 95 91 90 70 98 98 97 72 70 70 59 59 52 65 61 65 71 74 78 80 89 94
87 94 92 98 99 100 99 98 97 98 100 99 97 92 89 94 81 96 98 97 96 97 94 97 91 98 98 97 91 58 67 69 64 62 62 78 77 76 67 70 85 89 94 95
89 80 97 98 100 100 99 87 92 100 98 100 98 91 98 100 99 99 100 99 99 99 98 99 98 96 92 93 75 69 59 58 58 66 79 72 64 72 86 93 94 97 99 98
91 99 99 100 100 99 85 98 100 99 99 97 97 96 93 98 98 98 99 100 98 99 98 93 88 90 90 70 72 67 59 54 49 69 73 75 73 79 92 94 94 96 98 94
99 94 83 94 79 82 93 99 100 100 99 98 98 93 97 92 93 92 90 92 96 91 84 88 96 95 72 63 60 62 61 63 67 77 88 82 83 86 89 89 89 89 90 98
79 93 94 75 77 78 90 94 93 93 93 92 87 92 94 89 91 93 89 95 92 88 85 93 96 98 85 79 86 66 67 62 74 70 71 72 73 83 88 89 89 91 91 94
97 99 99 86 84 87 70 81 88 96 85 94 87 86 93 92 94 95 93 93 92 79 90 96 98 86 88 93 94 92 76 79 84 78 76 77 75 83 85 89 92 92 90 93
92 94 90 82 77 66 59 62 86 98 96 93 98 96 90 92 81 88 92 99 98 96 96 95 90 86 92 93 93 92 89 87 83 84 82 82 86 84 86 95 93 93 96 97
94 93 96 82 89 94 92 93 97 94 98 99 99 98 95 84 95 90 98 93 84 90 87 92 94 93 93 95 95 97 98 91 90 90 90 91 93 98 95 94 91 92 100 97
95 91 97 98 91 97 97 98 98 97 98 99 99 99 94 90 99 94 93 97 95 89 92 92 96 94 96 100 98 96 96 95 96 96 95 96 95 97 100 98 94 94 96 96
98 99 99 98 97 96 96 98 98 98 100 100 99 98 98 96 95 97 92 89 88 82 95 96 98 99 97 95 93 94 94 95 98 96 95 94 93 95 100 95 95 98 97 97
99 98 99 98 97 94 94 98 97 92 99 98 94 88 83 88 94 85 90 90 88 96 96 96 97 95 96 95 94 96 95 97 96 96 94 96 92 91 90 95 100 98 99 97
Wind_Speed
10 9 10 10 9 10 8 5 2 5 9 2 1 2 4 1 3 1 2 1 2 1 2 2 2 3 2 5 2 3 3 1 5 7 15 12 14 5 1 6 8 4 5 11
11 10 8 9 8 6 6 3 2 5 4 3 2 0 1 1 2 2 2 3 3 1 2 3 4 2 0 2 3 2 2 3 6 15 5 7 6 7 11 11 2 10 9 8
11 10 9 9 8 5 4 3 3 3 3 1 3 2 4 2 3 1 2 3 0 0 2 3 5 3 3 2 3 6 3 3 6 9 10 1 6 14 10 3 5 13 14 21
11 10 9 9 9 8 3 3 2 1 3 2 3 2 1 1 3 2 4 3 6 4 4 4 8 6 3 3 3 4 1 5 7 10 10 7 9 12 12 11 11 6 13 16
10 10 9 10 10 9 4 3 3 1 2 3 8 7 3 6 3 2 3 7 2 3 10 8 4 8 2 2 1 5 3 4 6 5 12 13 8 14 11 16 16 9 6 13
11 11 11 11 11 9 4 2 2 3 1 4 7 5 3 5 4 3 5 4 3 6 5 4 5 9 16 14 11 8 6 3 4 7 3 0 7 13 13 10 6 5 7 7
12 11 12 12 13 13 6 4 4 3 2 3 4 2 5 7 6 4 4 3 0 2 8 13 6 9 14 16 18 15 9 6 3 3 2 6 6 4 6 14 9 14 10 11
13 13 12 12 13 14 9 7 4 3 2 4 4 6 3 2 5 6 8 9 12 6 5 3 5 4 4 13 19 19 16 8 5 3 5 6 9 6 6 7 7 14 14 12
16 15 14 13 14 14 16 13 10 4 3 5 5 4 8 5 3 4 5 6 8 5 3 2 4 4 4 3 5 16 17 14 8 4 4 6 5 3 2 1 5 3 5 6
18 17 17 16 14 14 15 8 18 4 2 5 5 4 4 4 3 2 3 4 3 6 4 5 4 8 1 6 5 3 8 10 16 7 5 6 6 8 0 2 6 3 0 3
20 20 18 17 17 15 17 12 17 17 3 7 5 6 7 1 4 4 2 4 3 2 4 3 4 5 7 8 5 5 11 8 4 7 4 9 8 2 8 6 3 3 4 4
22 21 20 18 17 17 18 14 17 20 5 4 9 20 28 22 18 4 5 5 2 3 1 3 4 4 3 6 6 4 4 5 5 8 7 4 4 6 4 2 3 6 4 5
22 21 19 17 18 18 19 19 16 14 6 12 14 13 32 35 34 34 12 7 8 5 3 0 3 8 3 8 10 4 3 3 4 3 6 7 7 4 4 2 5 4 6 5
19 19 19 16 16 17 18 20 19 22 2 5 12 23 23 40 37 37 36 26 17 5 4 6 7 5 4 4 5 8 5 11 7 2 5 3 6 5 8 7 3 1 2 1
13 13 13 15 18 20 22 28 31 31 11 4 3 6 13 19 31 37 38 30 16 8 10 6 8 5 7 6 3 4 4 6 5 4 7 6 4 3 3 5 4 5 5 3
10 11 14 17 21 26 21 4 25 37 37 5 6 6 10 21 27 27 20 17 12 9 5 6 6 15 7 4 3 5 5 5 6 5 4 6 4 3 4 4 5 4 5 5
9 13 17 22 23 20 5 3 4 16 31 2 3 4 2 8 15 7 6 21 8 6 6 6 5 4 7 2 3 4 6 7 4 3 3 2 5 5 6 4 3 4 5 6
10 17 17 16 9 8 6 21 17 24 8 3 3 5 2 1 2 2 2 5 4 5 4 2 4 2 3 3 5 5 6 2 1 6 6 5 3 5 5 5 5 7 5 5
14 9 16 3 3 3 2 2 15 14 2 2 2 2 4 3 2 1 2 1 3 3 4 4 4 2 4 5 8 9 8 6 5 3 3 4 2 5 5 6 6 8 6 5
13 6 1 2 4 5 5 3 2 2 1 1 2 0 3 2 2 2 1 0 2 2 0 1 1 3 5 9 12 6 7 6 5 4 2 4 4 5 5 5 4 5 8 6
1 1 2 2 4 3 2 2 2 2 2 3 2 3 2 1 1 2 2 1 2 1 2 2 2 3 4 4 6 6 8 7 8 6 5 6 5 6 6 5 5 5 8 6
4 7 6 3 2 2 2 2 1 3 3 2 2 2 3 2 1 1 1 2 1 3 2 1 3 3 4 7 6 6 6 8 7 5 5 5 4 7 6 6 6 7 12 14
2 1 2 2 2 4 3 2 2 2 1 2 2 1 1 1 1 1 1 3 2 1 1 3 4 2 4 4 3 5 9 9 7 7 6 9 7 12 8 6 11 16 14 12
0 1 4 4 2 4 3 2 2 3 2 3 2 3 3 2 2 2 2 3 2 3 4 4 2 1 3 2 3 7 6 7 7 6 6 7 8 7 13 13 16 16 13 11
3 3 4 4 3 2 3 3 2 3 3 4 2 2 4 4 1 3 2 1 3 5 4 3 2 6 4 3 4 5 4 4 5 3 5 7 11 11 12 11 11 12 13 13
2 3 3 2 1 3 2 2 3 2 2 2 2 2 3 3 3 2 5 3 4 3 3 2 2 3 3 4 5 4 5 6 5 8 10 13 11 11 13 14 11 9 10 14
3 3 1 1 1 3 3 1 2 2 1 1 2 3 4 1 1 2 4 4 3 2 2 2 2 4 4 5 6 5 7 5 9 12 13 13 15 15 11 8 8 9 8 8
Wind_Direction
158 149 157 153 145 144 142 91 70 352 152 143 139 167 175 291 313 358 333 23 84 322 353 336 271 269 24 344 329 52 13 100 281 272 275 256 247 245 169 234 251 239 250 255
155 150 146 151 152 137 117 86 98 15 33 183 184 126 274 209 219 281 80 355 48 266 238 313 244 272 119 353 64 97 339 31 322 321 346 7 11 11 14 341 128 250 268 255
160 151 145 150 160 153 89 93 87 350 40 55 120 93 270 218 212 224 269 237 140 324 293 240 271 253 232 168 105 132 143 161 224 270 280 285 311 324 332 42 278 276 250 267
159 159 152 154 165 169 99 47 229 224 177 237 152 175 338 102 187 229 186 288 202 173 246 220 238 268 271 220 201 136 191 222 214 231 235 239 248 256 284 286 266 264 316 285
167 165 166 162 168 171 79 126 126 78 143 86 169 203 237 189 189 198 273 236 93 233 243 249 303 331 302 308 275 172 182 254 196 263 226 228 256 251 254 255 265 237 298 324
180 181 178 176 175 163 108 118 84 103 295 138 163 212 200 189 170 262 237 257 346 276 277 319 292 288 281 264 272 250 199 217 206 254 178 179 271 246 228 233 212 218 234 212
189 191 188 185 185 187 126 139 113 90 236 175 201 184 176 214 231 252 301 34 161 254 334 320 280 274 251 249 248 235 223 207 208 266 179 237 241 205 202 224 236 217 258 259
195 195 193 190 194 200 193 156 131 124 214 226 227 235 218 261 254 266 264 263 254 281 290 298 313 293 227 236 237 230 213 210 231 230 215 298 297 255 183 196 262 231 231 270
200 200 200 202 202 203 195 202 194 119 113 241 202 196 217 222 213 323 248 257 233 156 180 126 216 236 297 265 258 215 211 207 215 168 207 222 234 283 177 213 285 220 181 245
204 206 210 213 212 210 210 217 217 156 205 221 155 188 183 165 160 207 292 285 272 146 188 225 208 246 264 271 239 201 205 203 215 200 212 275 237 242 105 136 246 210 268 294
210 212 216 223 228 222 222 230 218 207 227 245 214 216 216 146 164 190 237 12 299 11 216 214 223 241 224 230 231 212 199 177 205 210 214 256 206 131 180 214 307 316 308 266
218 219 221 231 231 229 221 229 219 223 228 256 252 242 242 232 227 199 200 200 208 201 345 15 347 309 247 209 237 208 228 203 181 184 206 227 241 204 201 144 239 276 258 260
224 224 226 236 238 236 230 223 225 221 243 260 245 235 236 237 233 230 237 232 214 222 139 301 265 253 306 222 228 169 227 148 216 115 220 229 240 280 278 224 225 266 272 287
221 225 235 236 239 241 237 235 222 205 252 261 264 238 235 241 232 225 219 229 231 215 197 230 240 255 307 279 270 209 183 162 179 276 277 332 290 252 258 262 260 229 77 352
210 224 239 248 251 251 249 248 239 225 210 263 261 294 251 232 224 220 222 224 226 224 225 228 246 235 242 237 270 244 192 172 165 207 200 162 209 184 223 240 261 268 158 132
235 252 259 259 261 261 264 248 234 224 214 240 261 258 251 229 200 206 207 213 211 212 208 227 228 242 252 213 228 258 250 214 168 186 184 177 156 217 206 211 242 242 191 153
256 264 276 281 275 264 197 229 303 213 194 229 256 263 230 236 249 223 218 205 190 191 204 221 250 270 202 209 224 256 213 222 201 182 149 224 173 216 185 179 114 96 87 116
267 286 288 285 256 225 240 253 269 178 162 205 254 270 307 234 227 174 158 130 142 162 176 199 207 211 230 239 238 253 230 185 224 233 205 200 183 150 132 115 123 116 131 123
292 284 292 233 171 191 248 53 153 149 195 207 210 250 278 337 333 53 71 98 154 145 193 207 160 188 223 216 203 218 214 185 182 126 108 100 163 126 124 124 151 136 151 143
292 281 207 269 202 159 153 104 130 206 231 293 245 331 271 6 335 349 26 115 139 143 244 41 105 259 246 228 220 216 230 226 161 141 155 151 158 170 170 192 150 142 151 139
245 332 228 315 296 152 63 160 159 191 267 207 221 187 237 307 45 290 357 80 22 85 254 156 268 267 247 311 293 247 218 201 206 203 175 145 155 186 164 146 140 133 136 149
307 291 296 300 48 45 108 230 274 200 234 233 230 212 172 287 68 75 287 117 141 189 192 116 289 259 303 337 336 334 202 178 179 166 144 151 182 140 134 129 131 136 147 144
316 112 287 54 323 30 141 263 297 317 228 220 164 314 283 29 244 282 354 71 218 98 58 236 232 281 350 307 342 38 51 76 82 75 88 110 106 98 107 112 132 138 129 134
147 175 296 160 273 224 195 193 224 261 239 212 190 159 182 215 211 197 169 226 172 224 222 233 235 181 193 178 67 78 61 70 80 81 86 90 90 81 91 116 133 132 125 141
210 193 224 212 231 266 221 204 231 232 226 204 201 194 166 189 156 188 189 283 224 218 226 230 201 189 147 94 83 100 92 84 78 67 92 87 92 94 86 94 118 133 139 140
236 225 245 205 153 266 283 221 233 211 208 193 217 159 167 201 163 159 219 171 232 255 222 249 175 136 123 115 103 97 104 97 95 87 93 100 102 106 107 101 96 115 143 145
228 254 202 153 206 238 251 210 244 252 267 204 158 132 191 109 136 245 180 205 220 218 275 291 174 156 152 131 123 136 117 109 111 109 106 109 118 119 113 92 96 102 113 125